Regional Weather Roundup
Issued by NWS

Home | Current Version | Previous Version | Graphics & Text | Print | Product List | Glossary On
Versions: 1 2 3 4 5 6 7 8 9 10 11 12 13 14 15 16 17 18 19 20 21 22 23 24 25 26 27 28 29 30 31 32 33 34 35 36 37 38 39 40 41 42 43 44 45 46 47 48 49 50
000
ASUS45 KSLC 270710
RWRUT

UTAH REGIONAL WEATHER ROUNDUP
NATIONAL WEATHER SERVICE SALT LAKE CITY UT
100 AM MDT FRI MAR 27 2015

UTZ001>011-023>025-270800-

NORTHERN UTAH

CITY           SKY/WX    TMP DP  RH WIND       PRES   REMARKS
BRIGHAM CITY   CLEAR     41  33  75 CALM      30.35S
HILL AFB       CLEAR     46  28  50 E12       30.35S
LOGAN          CLEAR     38  33  82 CALM      30.35S
OGDEN          CLEAR     45  29  53 S9        30.34R
PROVO AIRPORT  CLEAR     41  28  60 E3        30.36S
SALT LAKE CITY CLEAR     45  29  53 SE7       30.34S
VERNAL         PTCLDY    44  23  43 W7        30.28S
WENDOVER       CLEAR     46  27  46 CALM      30.34S
HEBER CITY     CLEAR     34  27  75 CALM      30.38S
WEST JORDAN    CLEAR     43  30  61 CALM      30.35F

$$

UTZ012>022-026-027-270800-

SOUTHERN/CENTRAL UTAH

CITY           SKY/WX    TMP DP  RH WIND       PRES   REMARKS
BLANDING       CLEAR     45  18  33 NW7       30.38S
BRYCE CANYON   CLEAR     29  24  82 CALM      30.43S
CEDAR CITY     CLEAR     38  26  62 E6        30.35S WCI  33
DELTA          CLEAR     40  23  51 S3        30.35S
HANKSVILLE     CLEAR     43  18  36 CALM      30.30F
MILFORD        CLEAR     40  22  48 W8        30.35S WCI  34
MOAB/CYNLANDS  CLEAR     43  15  32 CALM      30.26R
PRICE          CLEAR     49  21  33 S6        30.30F
ST GEORGE      SUNNY     63  27  25 N10       30.25S
KANAB          CLEAR     39  25  56 N8        30.35S WCI  34

$$

REGIONAL REPORTS     COLORADO/ARIZONA

CITY           SKY/WX    TMP DP  RH WIND       PRES   REMARKS
CRAIG, CO      PTCLDY    40  29  64 SW3       30.32F
GRAND JUNCTION PTCLDY    42  20  41 E7        30.28F
RIFLE          PTCLDY    39  25  57 SE5       30.32R
MONTROSE       CLEAR     40  24  53 SE9       30.34F WCI  34
CORTEZ         CLEAR     33  17  51 E7        30.33S WCI  27
PAGE, AZ       CLEAR     53  21  28 SE3       30.28R
GRAND CANYON   PTCLDY    28  17  63 E3        30.38S
KINGMAN        CLEAR     48  23  37 SE9       30.23S
FLAGSTAFF      CLEAR     30  16  56 CALM      30.38F

$$

REGIONAL REPORTS    NEVADA/IDAHO/WYOMING

CITY           SKY/WX    TMP DP  RH WIND       PRES   REMARKS
LAS VEGAS, NV  CLEAR     65  27  23 S9        30.14S
ELY            CLEAR     37  21  52 S12       30.38R WCI  29
ELKO           CLEAR     43  29  57 NE7       30.32R
POCATELLO, ID  CLEAR     42  31  64 SE6       30.33F
BURLEY         CLEAR     40  34  79 CALM      30.31S
EVANSTON, WY   PTCLDY    38  26  62 SW6       30.39F WCI  33
ROCK SPRINGS   CLEAR     39  29  67 W15       30.32F WCI  31
KEMMERER       PTCLDY    36  30  80 CALM      30.38F

$$


USA.gov is the U.S. government's official web portal to all federal, state and local government web resources and services.